Time,TemperatureF,DewpointF,PressureIn,WindDirection,WindDirectionDegrees,WindSpeedMPH,WindSpeedGustMPH,Humidity,HourlyPrecipIn,Conditions,Clouds,dailyrainin,SolarRadiationWatts/m^2,SoftwareType,DateUTC
2013-05-23 00:03:00,80.0,75.0,29.95,South,171,2.0,-999.0,84,-99.99,,,0.00,0,weatherlink.com 1.10,2013-05-23 04:03:00,
2013-05-23 01:14:00,80.0,75.0,29.95,SSE,155,2.0,-999.0,84,-99.99,,,0.00,0,weatherlink.com 1.10,2013-05-23 05:14:00,
2013-05-23 01:19:00,79.9,75.0,29.95,SSE,157,5.0,-999.0,84,-99.99,,,0.00,0,weatherlink.com 1.10,2013-05-23 05:19:00,
2013-05-23 01:33:00,79.9,74.0,29.94,SSE,157,7.0,-999.0,83,-99.99,,,0.00,0,weatherlink.com 1.10,2013-05-23 05:33:00,
2013-05-23 01:48:00,80.0,75.0,29.94,SSE,148,5.0,-999.0,84,-99.99,,,0.00,0,weatherlink.com 1.10,2013-05-23 05:48:00,
2013-05-23 02:03:00,79.9,75.0,29.93,SE,144,4.0,-999.0,85,-99.99,,,0.00,0,weatherlink.com 1.10,2013-05-23 06:03:00,
2013-05-23 02:18:00,79.8,75.0,29.93,SSE,153,1.0,-999.0,85,-99.99,,,0.00,0,weatherlink.com 1.10,2013-05-23 06:18:00,
2013-05-23 02:33:00,79.7,75.0,29.93,SE,145,2.0,-999.0,85,-99.99,,,0.00,0,weatherlink.com 1.10,2013-05-23 06:33:00,
2013-05-23 02:48:00,79.6,75.0,29.93,SSE,165,2.0,-999.0,85,-99.99,,,0.00,0,weatherlink.com 1.10,2013-05-23 06:48:00,
2013-05-23 03:03:00,79.5,75.0,29.93,South,184,0.0,-999.0,85,-99.99,,,0.00,0,weatherlink.com 1.10,2013-05-23 07:03:00,
2013-05-23 03:18:00,79.5,75.0,29.93,South,188,2.0,-999.0,86,-99.99,,,0.00,0,weatherlink.com 1.10,2013-05-23 07:18:00,
2013-05-23 03:33:00,79.3,75.0,29.93,SSW,200,3.0,-999.0,86,-99.99,,,0.00,0,weatherlink.com 1.10,2013-05-23 07:33:00,
2013-05-23 03:48:00,79.2,74.0,29.93,SSW,198,2.0,-999.0,83,-99.99,,,0.00,0,weatherlink.com 1.10,2013-05-23 07:48:00,
2013-05-23 04:03:00,79.4,73.0,29.93,SW,227,2.0,-999.0,81,-99.99,,,0.00,0,weatherlink.com 1.10,2013-05-23 08:03:00,
2013-05-23 04:18:00,79.6,74.0,29.93,SW,233,3.0,-999.0,83,-99.99,,,0.00,0,weatherlink.com 1.10,2013-05-23 08:18:00,
2013-05-23 04:33:00,79.4,75.0,29.93,SW,227,2.0,-999.0,85,-99.99,,,0.00,0,weatherlink.com 1.10,2013-05-23 08:33:00,
2013-05-23 04:48:00,79.2,74.0,29.93,SW,228,4.0,-999.0,85,-99.99,,,0.00,0,weatherlink.com 1.10,2013-05-23 08:48:00,
2013-05-23 05:03:00,78.8,74.0,29.93,SW,228,0.0,-999.0,86,-99.99,,,0.00,0,weatherlink.com 1.10,2013-05-23 09:03:00,
2013-05-23 05:18:00,78.5,74.0,29.94,SW,228,0.0,-999.0,86,-99.99,,,0.00,0,weatherlink.com 1.10,2013-05-23 09:18:00,
2013-05-23 05:33:00,78.5,74.0,29.95,SW,228,0.0,-999.0,87,-99.99,,,0.00,0,weatherlink.com 1.10,2013-05-23 09:33:00,
2013-05-23 05:48:00,78.2,74.0,29.95,SW,228,0.0,-999.0,86,-99.99,,,0.00,0,weatherlink.com 1.10,2013-05-23 09:48:00,
2013-05-23 06:03:00,78.3,74.0,29.95,SW,229,0.0,-999.0,87,-99.99,,,0.00,0,weatherlink.com 1.10,2013-05-23 10:03:00,
2013-05-23 06:18:00,78.5,75.0,29.96,SW,229,3.0,-999.0,88,-99.99,,,0.00,0,weatherlink.com 1.10,2013-05-23 10:18:00,
2013-05-23 06:33:00,79.0,75.0,29.95,SW,229,4.0,-999.0,88,-99.99,,,0.00,0,weatherlink.com 1.10,2013-05-23 10:33:00,
2013-05-23 06:48:00,79.1,75.0,29.95,SW,229,0.0,-999.0,88,-99.99,,,0.00,16,weatherlink.com 1.10,2013-05-23 10:48:00,
2013-05-23 07:03:00,79.0,75.0,29.96,SW,229,4.0,-999.0,88,-99.99,,,0.00,26,weatherlink.com 1.10,2013-05-23 11:03:00,
2013-05-23 07:18:00,79.0,75.0,29.97,SW,231,3.0,-999.0,87,-99.99,,,0.00,53,weatherlink.com 1.10,2013-05-23 11:18:00,
2013-05-23 07:33:00,79.4,75.0,29.97,WSW,239,1.0,-999.0,85,-99.99,,,0.00,104,weatherlink.com 1.10,2013-05-23 11:33:00,
2013-05-23 07:48:00,80.2,75.0,29.98,WSW,240,0.0,-999.0,84,-99.99,,,0.00,162,weatherlink.com 1.10,2013-05-23 11:48:00,
2013-05-23 08:04:00,81.0,75.0,29.99,WSW,242,5.0,-999.0,82,-99.99,,,0.00,193,weatherlink.com 1.10,2013-05-23 12:04:00,
2013-05-23 08:19:00,81.5,75.0,29.99,WSW,244,2.0,-999.0,81,-99.99,,,0.00,269,weatherlink.com 1.10,2013-05-23 12:19:00,
2013-05-23 08:34:00,82.1,74.0,30.00,WSW,244,5.0,-999.0,77,-99.99,,,0.00,315,weatherlink.com 1.10,2013-05-23 12:34:00,
2013-05-23 08:49:00,82.5,75.0,30.00,West,261,5.0,-999.0,77,-99.99,,,0.00,373,weatherlink.com 1.10,2013-05-23 12:49:00,
2013-05-23 09:04:00,82.9,75.0,30.00,SW,232,3.0,-999.0,77,-99.99,,,0.00,427,weatherlink.com 1.10,2013-05-23 13:04:00,
2013-05-23 09:19:00,83.2,75.0,30.00,WSW,257,7.0,-999.0,77,-99.99,,,0.00,475,weatherlink.com 1.10,2013-05-23 13:19:00,
2013-05-23 09:34:00,83.5,75.0,30.00,West,259,6.0,-999.0,76,-99.99,,,0.00,527,weatherlink.com 1.10,2013-05-23 13:34:00,
2013-05-23 09:49:00,83.6,75.0,30.00,West,270,5.0,-999.0,76,-99.99,,,0.00,575,weatherlink.com 1.10,2013-05-23 13:49:00,
2013-05-23 10:04:00,84.1,75.0,30.00,West,260,6.0,-999.0,75,-99.99,,,0.00,621,weatherlink.com 1.10,2013-05-23 14:04:00,
2013-05-23 10:19:00,84.3,76.0,30.00,WSW,243,8.0,-999.0,75,-99.99,,,0.00,666,weatherlink.com 1.10,2013-05-23 14:19:00,
2013-05-23 10:34:00,84.2,76.0,30.00,West,275,6.0,-999.0,76,-99.99,,,0.00,710,weatherlink.com 1.10,2013-05-23 14:34:00,
2013-05-23 10:49:00,84.5,77.0,30.01,WSW,254,4.0,-999.0,77,-99.99,,,0.00,742,weatherlink.com 1.10,2013-05-23 14:49:00,
2013-05-23 11:04:00,84.4,76.0,30.01,West,280,9.0,-999.0,75,-99.99,,,0.00,780,weatherlink.com 1.10,2013-05-23 15:04:00,
2013-05-23 11:19:00,84.1,75.0,30.01,WNW,292,7.0,-999.0,75,-99.99,,,0.00,782,weatherlink.com 1.10,2013-05-23 15:19:00,
2013-05-23 11:34:00,85.0,76.0,30.01,WSW,240,6.0,-999.0,75,-99.99,,,0.00,772,weatherlink.com 1.10,2013-05-23 15:34:00,
2013-05-23 11:50:00,85.2,77.0,30.01,WSW,257,7.0,-999.0,75,-99.99,,,0.00,854,weatherlink.com 1.10,2013-05-23 15:50:00,
2013-05-23 12:05:00,85.4,76.0,30.02,WNW,300,11.0,-999.0,74,-99.99,,,0.00,348,weatherlink.com 1.10,2013-05-23 16:05:00,
2013-05-23 12:20:00,86.2,77.0,30.02,West,281,8.0,-999.0,74,-99.99,,,0.00,127,weatherlink.com 1.10,2013-05-23 16:20:00,
2013-05-23 12:35:00,85.3,76.0,30.01,WNW,284,12.0,-999.0,74,-99.99,,,0.00,142,weatherlink.com 1.10,2013-05-23 16:35:00,
2013-05-23 12:50:00,86.0,77.0,30.01,West,273,8.0,-999.0,74,-99.99,,,0.00,193,weatherlink.com 1.10,2013-05-23 16:50:00,
2013-05-23 13:05:00,85.9,77.0,30.00,West,264,13.0,-999.0,74,-99.99,,,0.00,956,weatherlink.com 1.10,2013-05-23 17:05:00,
2013-05-23 13:20:00,86.0,76.0,30.00,WSW,243,8.0,-999.0,73,-99.99,,,0.00,956,weatherlink.com 1.10,2013-05-23 17:20:00,
2013-05-23 13:35:00,85.7,77.0,30.00,WSW,250,6.0,-999.0,74,-99.99,,,0.00,960,weatherlink.com 1.10,2013-05-23 17:35:00,
2013-05-23 13:50:00,86.2,77.0,30.00,West,263,10.0,-999.0,74,-99.99,,,0.00,916,weatherlink.com 1.10,2013-05-23 17:50:00,
2013-05-23 14:05:00,86.4,77.0,29.99,West,266,5.0,-999.0,74,-99.99,,,0.00,997,weatherlink.com 1.10,2013-05-23 18:05:00,
2013-05-23 14:20:00,85.9,76.0,29.99,WSW,253,11.0,-999.0,73,-99.99,,,0.00,963,weatherlink.com 1.10,2013-05-23 18:20:00,
2013-05-23 14:35:00,86.5,77.0,29.99,West,268,6.0,-999.0,73,-99.99,,,0.00,933,weatherlink.com 1.10,2013-05-23 18:35:00,
2013-05-23 14:50:00,86.6,76.0,29.98,West,277,12.0,-999.0,71,-99.99,,,0.00,911,weatherlink.com 1.10,2013-05-23 18:50:00,
2013-05-23 15:05:00,86.1,75.0,29.97,West,269,8.0,-999.0,70,-99.99,,,0.00,875,weatherlink.com 1.10,2013-05-23 19:05:00,
2013-05-23 15:20:00,86.8,76.0,29.96,West,281,9.0,-999.0,70,-99.99,,,0.00,858,weatherlink.com 1.10,2013-05-23 19:20:00,
2013-05-23 15:35:00,87.0,76.0,29.96,West,259,11.0,-999.0,70,-99.99,,,0.00,830,weatherlink.com 1.10,2013-05-23 19:35:00,
2013-05-23 15:50:00,87.0,76.0,29.96,WSW,244,4.0,-999.0,70,-99.99,,,0.00,788,weatherlink.com 1.10,2013-05-23 19:50:00,
2013-05-23 16:05:00,87.0,76.0,29.95,WSW,248,4.0,-999.0,70,-99.99,,,0.00,754,weatherlink.com 1.10,2013-05-23 20:05:00,
2013-05-23 16:20:00,86.7,76.0,29.96,WSW,258,8.0,-999.0,71,-99.99,,,0.00,717,weatherlink.com 1.10,2013-05-23 20:20:00,
2013-05-23 16:35:00,86.9,76.0,29.95,West,274,11.0,-999.0,69,-99.99,,,0.00,680,weatherlink.com 1.10,2013-05-23 20:35:00,
2013-05-23 16:50:00,87.2,76.0,29.95,West,265,11.0,-999.0,70,-99.99,,,0.00,638,weatherlink.com 1.10,2013-05-23 20:50:00,
2013-05-23 17:05:00,87.7,75.0,29.95,West,265,3.0,-999.0,67,-99.99,,,0.00,592,weatherlink.com 1.10,2013-05-23 21:05:00,
2013-05-23 17:20:00,88.3,71.0,29.95,WSW,252,11.0,-999.0,56,-99.99,,,0.00,543,weatherlink.com 1.10,2013-05-23 21:20:00,
2013-05-23 17:35:00,88.5,69.0,29.95,West,276,9.0,-999.0,52,-99.99,,,0.00,492,weatherlink.com 1.10,2013-05-23 21:35:00,
2013-05-23 17:50:00,88.3,70.0,29.95,West,281,5.0,-999.0,54,-99.99,,,0.00,434,weatherlink.com 1.10,2013-05-23 21:50:00,
2013-05-23 18:05:00,88.8,71.0,29.96,WSW,246,6.0,-999.0,55,-99.99,,,0.00,385,weatherlink.com 1.10,2013-05-23 22:05:00,
2013-05-23 18:35:00,87.6,71.0,29.95,West,275,6.0,-999.0,58,-99.99,,,0.00,276,weatherlink.com 1.10,2013-05-23 22:35:00,
2013-05-23 18:50:00,87.4,70.0,29.96,WSW,241,4.0,-999.0,56,-99.99,,,0.00,213,weatherlink.com 1.10,2013-05-23 22:50:00,
2013-05-23 19:05:00,87.1,69.0,29.96,West,266,6.0,-999.0,55,-99.99,,,0.00,146,weatherlink.com 1.10,2013-05-23 23:05:00,
2013-05-23 19:20:00,86.8,69.0,29.96,WSW,245,8.0,-999.0,56,-99.99,,,0.00,93,weatherlink.com 1.10,2013-05-23 23:20:00,
2013-05-23 19:35:00,86.5,68.0,29.96,West,271,2.0,-999.0,55,-99.99,,,0.00,46,weatherlink.com 1.10,2013-05-23 23:35:00,
2013-05-23 19:50:00,85.9,70.0,29.96,West,269,4.0,-999.0,59,-99.99,,,0.00,19,weatherlink.com 1.10,2013-05-23 23:50:00,
2013-05-23 20:05:00,85.0,71.0,29.97,WSW,257,4.0,-999.0,63,-99.99,,,0.00,5,weatherlink.com 1.10,2013-05-24 00:05:00,
2013-05-23 20:20:00,84.2,73.0,29.97,WSW,252,6.0,-999.0,70,-99.99,,,0.00,0,weatherlink.com 1.10,2013-05-24 00:20:00,
2013-05-23 20:35:00,83.6,74.0,29.98,WSW,252,5.0,-999.0,72,-99.99,,,0.00,0,weatherlink.com 1.10,2013-05-24 00:35:00,
2013-05-23 20:50:00,83.2,74.0,29.98,WSW,246,8.0,-999.0,73,-99.99,,,0.00,0,weatherlink.com 1.10,2013-05-24 00:50:00,
2013-05-23 21:05:00,83.0,74.0,29.98,West,261,7.0,-999.0,73,-99.99,,,0.00,0,weatherlink.com 1.10,2013-05-24 01:05:00,
2013-05-23 21:20:00,82.8,74.0,29.98,WSW,256,8.0,-999.0,74,-99.99,,,0.00,0,weatherlink.com 1.10,2013-05-24 01:20:00,
2013-05-23 21:35:00,82.9,74.0,29.99,WSW,244,3.0,-999.0,74,-99.99,,,0.00,0,weatherlink.com 1.10,2013-05-24 01:35:00,
2013-05-23 21:50:00,82.8,73.0,29.99,WSW,254,7.0,-999.0,73,-99.99,,,0.00,0,weatherlink.com 1.10,2013-05-24 01:50:00,
2013-05-23 22:05:00,82.8,73.0,29.99,WSW,245,4.0,-999.0,72,-99.99,,,0.00,0,weatherlink.com 1.10,2013-05-24 02:05:00,
2013-05-23 22:20:00,82.6,72.0,30.00,West,267,3.0,-999.0,71,-99.99,,,0.00,0,weatherlink.com 1.10,2013-05-24 02:20:00,
2013-05-23 22:35:00,82.4,72.0,30.00,WSW,250,5.0,-999.0,71,-99.99,,,0.00,0,weatherlink.com 1.10,2013-05-24 02:35:00,
2013-05-23 22:50:00,82.4,71.0,30.00,WSW,256,3.0,-999.0,69,-99.99,,,0.00,0,weatherlink.com 1.10,2013-05-24 02:50:00,
2013-05-23 23:05:00,82.3,72.0,30.00,West,269,5.0,-999.0,71,-99.99,,,0.00,0,weatherlink.com 1.10,2013-05-24 03:05:00,
2013-05-23 23:20:00,82.2,74.0,30.00,West,266,5.0,-999.0,75,-99.99,,,0.00,0,weatherlink.com 1.10,2013-05-24 03:20:00,
2013-05-23 23:35:00,82.0,74.0,30.00,West,279,6.0,-999.0,77,-99.99,,,0.00,0,weatherlink.com 1.10,2013-05-24 03:35:00,
2013-05-23 23:50:00,81.4,74.0,30.01,WNW,287,7.0,-999.0,78,-99.99,,,0.00,0,weatherlink.com 1.10,2013-05-24 03:50:00,